This is the latest recevied weather packets stored in our database for station/object W9GWP. If no packets are shown the sender has not sent any weather packets the latest 10 day(s).
| Time | Temp. | Humidity | Pressure | Rain* | Wind** | Luminosity | Snow |
|---|---|---|---|---|---|---|---|
| 1777854973 | 18.89° C | 51% | 1034 hPa | 0 mm | - | 9 W/m² | - |
| 1777854070 | 19.44° C | 49% | 1034.1 hPa | 0 mm | - | 20 W/m² | - |
| 1777853167 | 19.44° C | 48% | 1033.9 hPa | 0 mm | - | 27 W/m² | - |
| 1777852264 | 20° C | 47% | 1034.2 hPa | 0 mm | - | 35 W/m² | - |
| 1777851363 | 20.56° C | 45% | 1033.9 hPa | 0 mm | - | 128 W/m² | - |
| 1777850459 | 20.56° C | 45% | 1034.1 hPa | 0 mm | - | 171 W/m² | - |
| 1777849555 | 20.56° C | 44% | 1034.3 hPa | 0 mm | - | 220 W/m² | - |
| 1777848650 | 20.56° C | 44% | 1034.5 hPa | 0 mm | - | 252 W/m² | - |
| 1777847750 | 20.56° C | 45% | 1034.4 hPa | 0 mm | - | 302 W/m² | - |
| 1777846847 | 20° C | 46% | 1034.5 hPa | 0 mm | - | 328 W/m² | - |
| 1777845943 | 19.44° C | 45% | 1034.8 hPa | 0 mm | - | 390 W/m² | - |
| 1777845040 | 20° C | 45% | 1034.5 hPa | 0 mm | - | 429 W/m² | - |
| 1777844139 | 19.44° C | 45% | 1035 hPa | 0 mm | - | 462 W/m² | - |
| 1777843236 | 19.44° C | 46% | 1035 hPa | 0 mm | - | 513 W/m² | - |
| 1777842331 | 18.89° C | 46% | 1035.4 hPa | 0 mm | - | 542 W/m² | - |
| 1777841426 | 18.89° C | 45% | 1035.6 hPa | 0 mm | - | 417 W/m² | - |
| 1777840523 | 18.33° C | 45% | 1036.3 hPa | 0 mm | - | 577 W/m² | - |
| 1777839621 | 17.78° C | 51% | 1036.3 hPa | 0 mm | - | 604 W/m² | - |
| 1777838718 | 17.78° C | 52% | 1036.8 hPa | 0 mm | - | 383 W/m² | - |
| 1777837815 | 16.67° C | 53% | 1037 hPa | 0 mm | - | 566 W/m² | - |
| 1777836914 | 16.67° C | 53% | 1037.4 hPa | 0 mm | - | 653 W/m² | - |
| 1777836014 | 16.67° C | 52% | 1037.3 hPa | 0 mm | - | 526 W/m² | - |
| 1777835110 | 16.67° C | 50% | 1037.4 hPa | 0 mm | - | 676 W/m² | - |
| 1777834209 | 16.11° C | 51% | 1037.5 hPa | 0 mm | - | 673 W/m² | - |
| 1777833304 | 15.56° C | 52% | 1037.4 hPa | 0 mm | - | 105 W/m² | - |
* Rain latest hour (hover to see other rain measurements)
** Current wind speed in m/s (hover to see current wind gust speed)